EW2769 Weather Reports


time (UTC)temp
C
wind
direction
speed
KPH
gust
KPH
rain 1hr
cm
rain 24hr
cm
rain mn
cm
humidity
%
barometer
mb
20260507080024 4 282 0.0 1.6 0.00 3.17 2.84 100 1004.7
20260507074546 -17 0.0 0.0 0.00 0.00 0.00 1002.1
20260507074520 4 305 0.0 0.0 0.00 3.17 2.84 100 1004.6
20260507073038 -17 0.0 0.0 0.00 0.00 0.00 1002.0
20260507073016 4 358 0.0 0.0 0.00 3.20 2.84 100 1004.5
20260507071518 -17 0.0 0.0 0.00 0.00 0.00 1002.0
20260507071511 4 358 0.0 0.0 0.00 3.20 2.84 100 1004.4
20260507070014 -17 0.0 0.0 0.00 0.00 0.00 1002.0
20260507070011 4 359 0.0 3.2 0.00 3.20 2.84 100 1004.2
20260507064603 5 18 1.6 11.3 0.00 3.20 2.84 100 1004.1
20260507064510 -17 0.0 0.0 0.00 0.00 0.00 1002.1
20260507063041 5 348 3.2 16.1 0.00 3.30 2.84 100 1004.3
20260507063006 -17 0.0 0.0 0.00 0.00 0.00 1002.0
20260507061527 5 329 3.2 8.0 0.00 3.30 2.84 100 1004.3
20260507061504 -17 0.0 0.0 0.00 0.00 0.00 1002.1
20260507060021 5 338 1.6 19.3 0.00 3.30 2.84 100 1004.4
20260507054604 -17 0.0 0.0 0.00 0.00 0.00 1002.3
20260507054516 5 49 0.0 6.4 0.00 3.30 2.84 100 1004.5
20260507053049 -17 0.0 0.0 0.00 0.00 0.00 1002.7
20260507053013 5 2 0.0 11.3 0.00 3.33 2.84 100 1004.0
20260507051544 -17 0.0 0.0 0.00 0.00 0.00 1002.6
20260507051508 5 20 0.0 14.5 0.00 3.33 2.84 100 1004.3
20260507050028 -17 0.0 0.0 0.00 0.00 0.00 1002.8
20260507050008 5 351 9.7 17.7 0.00 3.33 2.84 100 1004.4
20260507044559 5 34 3.2 11.3 0.03 3.33 2.84 100 1004.5
20260507044522 -17 0.0 0.0 0.00 0.00 0.00 1002.7
20260507043101 5 326 0.0 8.0 0.05 3.38 2.84 100 1004.6
20260507043018 -17 0.0 0.0 0.00 0.00 0.00 1002.9
20260507041548 5 342 0.0 4.8 0.13 3.38 2.84 100 1004.6
20260507041513 -17 0.0 0.0 0.00 0.00 0.00 1002.9
20260507040029 5 347 0.0 8.0 0.20 3.38 2.84 100 1004.5
20260507040008 -17 0.0 0.0 0.00 0.00 0.00 1002.9
20260507034515 5 353 3.2 14.5 0.25 3.35 2.84 100 1004.6
20260507034504 -17 0.0 0.0 0.00 0.00 0.00 1003.1
20260507033101 -17 0.0 0.0 0.00 0.00 0.00 1003.3
20260507033012 5 346 4.8 17.7 0.30 3.33 2.82 100 1004.9
20260507031602 -17 0.0 0.0 0.00 0.00 0.00 1003.5
20260507031505 6 200 0.0 9.7 0.28 3.25 2.74 100 1005.0
20260507030039 -17 0.0 0.0 0.00 0.00 0.00 1003.4
20260507030000 6 318 3.2 11.3 0.25 3.17 2.67 100 1004.9
20260507024604 6 319 0.0 8.0 0.20 3.10 2.59 100 1004.8
20260507024536 -17 0.0 0.0 0.00 0.00 0.00 1003.4
20260507023109 6 326 4.8 17.7 0.15 3.02 2.51 100 1004.7
20260507023030 -17 0.0 0.0 0.00 0.00 0.00 1003.4
20260507021552 6 337 4.8 14.5 0.15 2.97 2.46 100 1004.5
20260507021524 -17 0.0 0.0 0.00 0.00 0.00 1003.3
20260507020044 6 331 0.0 8.0 0.13 2.90 2.41 100 1004.5
20260507020021 -17 0.0 0.0 0.00 0.00 0.00 1003.3
20260507014532 6 300 0.0 0.0 0.15 2.87 2.39 100 1004.4
20260507014514 -17 0.0 0.0 0.00 0.00 0.00 1003.2
20260507013032 6 301 0.0 0.0 0.18 2.84 2.36 100 1004.4
20260507013009 -17 0.0 0.0 0.00 0.00 0.00 1003.2
20260507011555 6 330 0.0 8.0 0.18 2.82 2.31 100 1004.7
20260507011507 -17 0.0 0.0 0.00 0.00 0.00 1003.3
20260507010051 6 317 0.0 4.8 0.20 2.79 2.29 100 1004.6
20260507010045 -17 0.0 0.0 0.00 0.00 0.00 1003.4
20260507004542 -17 0.0 0.0 0.00 0.00 0.00 1003.4
20260507004533 6 291 0.0 8.0 0.20 2.74 2.24 100 1004.7
20260507003038 -17 0.0 0.0 0.00 0.00 0.00 1003.5
20260507003028 6 321 0.0 9.7 0.23 2.69 2.18 100 1004.9
20260507001546 -17 0.0 0.0 0.00 0.00 0.00 1003.6
20260507001525 6 313 0.0 8.0 0.20 2.64 2.13 100 1004.8
20260507000027 7 299 0.0 0.0 0.23 2.59 2.08 100 1004.6
20260506234530 -17 0.0 0.0 0.00 0.00 0.00 1003.4
20260506234515 7 283 0.0 3.2 0.20 2.51 2.01 100 1004.7
20260506233020 -17 0.0 0.0 0.00 0.00 0.00 1003.3
20260506233011 7 10 0.0 6.4 0.18 2.49 1.96 100 1004.6
20260506231515 -17 0.0 0.0 0.00 0.00 0.00 1003.3
20260506231507 7 329 0.0 0.0 0.20 2.46 1.93 100 1004.5
20260506230058 -17 0.0 0.0 0.00 0.00 0.00 1003.3
20260506230003 7 338 0.0 4.8 0.18 2.39 1.85 100 1004.5
20260506224603 7 139 0.0 4.8 0.23 2.36 1.83 100 1004.2
20260506224552 -17 0.0 0.0 0.00 0.00 0.00 1003.4
20260506223115 7 355 0.0 8.0 0.20 2.46 1.80 100 1004.4
20260506223048 -17 0.0 0.0 0.00 0.00 0.00 1003.2
20260506221552 7 351 1.6 11.3 0.20 2.41 1.75 100 1004.6
20260506221544 -17 0.0 0.0 0.00 0.00 0.00 1003.2
20260506220049 -17 0.0 0.0 0.00 0.00 0.00 1003.4
20260506214543 8 77 0.0 0.0 0.15 2.29 1.63 100 1004.3
20260506214535 -17 0.0 0.0 0.00 0.00 0.00 1003.4
20260506213040 8 77 0.0 0.0 0.15 2.31 1.60 100 1004.0
20260506213030 -17 0.0 0.0 0.00 0.00 0.00 1002.9
20260506211543 8 77 0.0 0.0 0.13 2.26 1.55 100 1004.1
20260506211526 -17 0.0 0.0 0.00 0.00 0.00 1002.9
20260506210039 8 77 0.0 0.0 0.15 2.24 1.52 100 1004.1
20260506210002 -17 0.0 0.0 0.00 0.00 0.00 1002.7
20260506204559 -17 0.0 0.0 0.00 0.00 0.00 1002.7
20260506204532 8 65 0.0 1.6 0.13 2.18 1.45 100 1004.2
20260506203109 -17 0.0 0.0 0.00 0.00 0.00 1002.7
20260506203031 7 45 0.0 0.0 0.15 2.24 1.42 100 1004.0
20260506201534 -17 0.0 0.0 0.00 0.00 0.00 1002.5
20260506201523 7 45 0.0 0.0 0.18 2.21 1.42 100 1004.4
20260506200017 8 58 0.0 0.0 0.25 2.16 1.37 100 1004.5
20260506200013 -17 0.0 0.0 0.00 0.00 0.00 1002.3
20260506194607 8 77 0.0 0.0 0.33 2.13 1.35 100 1004.6
20260506194508 -17 0.0 0.0 0.00 0.00 0.00 1002.7
20260506193052 7 313 9.7 14.5 0.41 2.08 1.30 100 1005.7
20260506191551 -17 0.0 0.0 0.00 0.00 0.00 1002.8
20260506191535 7 130 1.6 11.3 0.41 2.01 1.22 100 1004.6
20260506190048 -17 0.0 0.0 0.00 0.00 0.00 1002.6
20260506190031 8 41 0.0 4.8 0.41 1.93 1.14 100 1005.1
20260506184548 -17 0.0 0.0 0.00 0.00 0.00 1003.0
20260506184527 8 102 0.0 6.4 0.36 1.80 1.02 100 1005.0
20260506183032 -17 0.0 0.0 0.00 0.00 0.00 1002.6
20260506183025 8 81 0.0 4.8 0.28 1.68 0.89 100 1005.0
20260506181528 -17 0.0 0.0 0.00 0.00 0.00 1002.2
20260506181521 8 95 1.6 6.4 0.28 1.60 0.81 100 1004.8
20260506180024 -17 0.0 0.0 0.00 0.00 0.00 1002.8
20260506180020 8 112 3.2 11.3 0.25 1.52 0.71 100 1004.6
20260506174520 -17 0.0 0.0 0.00 0.00 0.00 1002.3
20260506174509 8 119 0.0 4.8 0.20 1.42 0.66 100 1005.0
20260506173100 -17 0.0 0.0 0.00 0.00 0.00 1002.7
20260506173005 8 117 3.2 9.7 0.20 1.40 0.61 100 1004.8
20260506171605 -17 0.0 0.0 0.00 0.00 0.00 1003.0
20260506171501 8 51 0.0 0.0 0.20 1.32 0.53 100 1005.8
20260506170052 -17 0.0 0.0 0.00 0.00 0.00 1003.4
20260506170040 8 126 0.0 4.8 0.23 1.27 0.48 100 1005.9
20260506164553 -17 0.0 0.0 0.00 0.00 0.00 1004.0
20260506164537 7 133 1.6 6.4 0.23 1.24 0.46 100 1005.9
20260506163057 -17 0.0 0.0 0.00 0.00 0.00 1003.4
20260506163022 7 120 0.0 4.8 0.20 1.19 0.41 100 1006.4
20260506161539 -17 0.0 0.0 0.00 0.00 0.00 1004.7
20260506161521 7 349 11.3 29.0 0.15 1.12 0.33 100 1007.7
20260506160036 -17 0.0 0.0 0.00 0.00 0.00 1005.3
20260506160013 7 135 0.0 3.2 0.10 1.04 0.25 100 1006.8
20260506154536 -17 0.0 0.0 0.00 0.00 0.00 1004.3
20260506154506 7 143 0.0 0.0 0.13 1.02 0.23 100 1006.9
20260506153011 -17 0.0 0.0 0.00 0.00 0.00 1004.2
20260506153002 7 143 0.0 0.0 0.23 0.99 0.20 100 1006.8
20260506151558 7 66 0.0 0.0 0.25 0.97 0.18 100 1007.1
20260506151509 -17 0.0 0.0 0.00 0.00 0.00 1004.5
20260506150055 7 46 0.0 4.8 0.28 0.94 0.15 100 1007.5
20260506150006 -17 0.0 0.0 0.00 0.00 0.00 1004.9
20260506144559 -17 0.0 0.0 0.00 0.00 0.00 1005.4
20260506144552 7 37 0.0 3.2 0.28 0.89 0.10 100 1008.0
20260506143055 -17 0.0 0.0 0.00 0.00 0.00 1005.5
20260506143045 7 326 6.4 16.1 0.20 0.79 0.79 100 1008.3
20260506141551 -17 0.0 0.0 0.00 0.00 0.00 1005.5
20260506141541 8 57 0.0 0.0 0.13 0.69 0.69 100 1007.8
20260506140046 -17 0.0 0.0 0.00 0.00 0.00 1005.2
20260506140020 8 101 0.0 0.0 0.08 0.64 0.64 100 1007.6
20260506134542 -17 0.0 0.0 0.00 0.00 0.00 1005.4
20260506134527 8 55 0.0 0.0 0.08 0.61 0.61 100 1007.6
20260506133054 8 39 0.0 0.0 0.05 0.58 0.58 100 1007.9
20260506133038 -17 0.0 0.0 0.00 0.00 0.00 1005.8
20260506131606 8 68 0.0 0.0 0.03 0.56 0.56 100 1007.8
20260506131519 -17 0.0 0.0 0.00 0.00 0.00 1005.9
20260506130033 8 68 0.0 0.0 0.03 0.56 0.56 100 1008.1
20260506130011 -17 0.0 0.0 0.00 0.00 0.00 1005.6
20260506124549 -17 0.0 0.0 0.00 0.00 0.00 1005.8
20260506124528 8 68 0.0 0.0 0.00 0.53 0.53 100 1008.2
20260506123048 -17 0.0 0.0 0.00 0.00 0.00 1005.7
20260506123024 8 68 0.0 0.0 0.00 0.53 0.53 100 1008.4
20260506121525 -17 0.0 0.0 0.00 0.00 0.00 1005.7
20260506121519 8 82 0.0 0.0 0.00 0.53 0.53 100 1008.0
20260506120020 -17 0.0 0.0 0.00 0.00 0.00 1005.6
20260506120015 8 82 0.0 0.0 0.00 0.53 0.53 100 1008.0
20260506114521 8 82 0.0 0.0 0.00 0.53 0.53 100 1008.2
20260506114516 -17 0.0 0.0 0.00 0.00 0.00 1005.5
20260506113011 -17 0.0 0.0 0.00 0.00 0.00 1006.1
20260506113007 8 82 0.0 0.0 0.00 0.53 0.53 100 1008.5
20260506111510 -17 0.0 0.0 0.00 0.00 0.00 1005.9
20260506111502 7 6 1.6 4.8 0.00 0.53 0.53 100 1008.0
20260506110050 7 281 0.0 0.0 0.00 0.53 0.53 100 1008.2
20260506110004 -17 0.0 0.0 0.00 0.00 0.00 1005.8
20260506104608 -17 0.0 0.0 0.00 0.00 0.00 1005.7
20260506104542 7 303 0.0 0.0 0.00 0.53 0.53 100 1008.2
20260506103103 -17 0.0 0.0 0.00 0.00 0.00 1005.7
20260506103037 7 302 0.0 4.8 0.00 0.53 0.53 100 1008.2
20260506101533 7 180 0.0 0.0 0.00 0.53 0.53 100 1007.8
20260506100034 7 256 0.0 8.0 0.00 0.53 0.53 100 1008.7
20260506100031 -17 0.0 0.0 0.00 0.00 0.00 1005.4
20260506094524 7 226 0.0 0.0 0.00 0.53 0.53 100 1008.2
20260506094508 -17 0.0 0.0 0.00 0.00 0.00 1005.3
20260506093019 7 210 0.0 0.0 0.00 0.53 0.53 100 1008.0
20260506093004 -17 0.0 0.0 0.00 0.00 0.00 1005.1
20260506091600 -17 0.0 0.0 0.00 0.00 0.00 1005.3
20260506091516 7 324 0.0 0.0 0.03 0.53 0.53 100 1007.9
20260506090109 -17 0.0 0.0 0.00 0.00 0.00 1005.3
20260506090059 7 324 0.0 0.0 0.03 0.53 0.53 100 1008.0
20260506084603 -17 0.0 0.0 0.00 0.00 0.00 1005.4
20260506084601 8 325 0.0 0.0 0.05 0.53 0.53 100 1008.0
20260506083109 8 316 0.0 0.0 0.05 0.53 0.53 100 1008.2
20260506083046 -17 0.0 0.0 0.00 0.00 0.00 1005.4
20260506081550 8 317 0.0 0.0 0.03 0.51 0.51 100 1007.9
20260506081544 -17 0.0 0.0 0.00 0.00 0.00 1005.6